Location: �couen
(49.0206°N, 2.3831°E)
Time: 22:30:40
(UTC+00:00)

ATLAS 3B R/B - Pass Details

Date: 30 May 2022
Orbit: 976 x 1218 km, 63.8° (Epoch: 20 June)

Event Time Altitude Azimuth Distance (km) Brightness Sun altitude
Rises 21:28:54 0° 317° (NW) 3,962 7.6 -12.6°
Reaches altitude 10° 21:31:36 10° 313° (NW) 3,034 6.4 -12.9°
Maximum altitude 21:38:37 54° 239° (WSW) 1,412 3.3 -13.5°
Enters shadow 21:44:28 17° 168° (SSE) 2,665 4.2 -13.9°
